STARLINK-32440, 61714

Orbit data source: Space-Track

STARLINK-32440, 61714 is a payload satellite owned by SpaceX/Seattle (US) in LEO that was launched on Wed, 30 Oct 2024 UTC via an FALCON 9 launch vehicle from the Air Force Eastern Test Range (AFETR). Payload-class satellites include a variety of spacecraft equipped with specific instruments for various scientific and technological missions. These include communications satellites like Starlink; space stations such as the ISS; scientific satellites like the Hubble; Earth observation satellites from companies like Planet Labs, Umbra, and HawkEye 360; GPS; miniature CubeSats for education and research; and military/defense satellites.

Loading next visibility...
Identifier
61714, 2024-196H
Orbit
LEO
Last TLE update
14 hours ago
Origin
Manufacturer
SpaceX/Seattle
Mission
Operational Commercial Communications
Bus & Motor
STARLINK V2M, Unknown motor
Mass
730 kg wet, ~700 kg dry
Launch date (UTC)
2024-10-30 (8 months ago)
Launch vehicle
FALCON 9
Launch site
Air Force Eastern Test Range (AFETR)
Object type
Payload
Rocket body
Debris
Shape & HBR
Box + 2 Pan, 29 m
Radar Cross Section
36.964 m², Large (>1 m²)

Expand to show TLE details & history

TLE from 14 hours ago
0 STARLINK-32440
1 61714U 24196H   25183.71324134 -.00000067  00000-0  98698-5 0  9994
2 61714  53.1595 182.4844 0000956  80.2537 279.8571 15.30188316 38887
Epoch: 2025-07-02T17:07Z
TLE epoch observation values (Epoch: 2025-07-02T17:07:04.051Z)
Latitude
-0.00009°
Longitude
4.72706°
Altitude
476.038 km
Speed
7.629 km/s
True Right ascension
12h 09m 56s
True Declination
0° 00' 00"
Sunlit
Object was in daylight at epoch
Visualization orbit readout
Latitude
-32.9673°
Longitude
-148.99061°
Altitude
486.063 km
Speed
7.622 km/s
Apparent Right ascension
03h 56m 52s
Apparent Declination
-41° 10' 37"
Sunlit
Object is in daylight
Visualization observer readout
Local Sidereal Time
18:23:18
Azimuth
104.644° ESE
Elevation
-62.358°
Doppler factor
1
Orbital elements
Apogee altitude
476.162 km
Perigee altitude
474.851 km
Semi-major axis
6,853.643 km
Eccentricity
0.0001
Inclination
53.1595°
RAAN
182.4844°
Arg. of periapsis
80.2537°
True anomaly
Unknown
Mean anomaly
279.8571°
Eccentric anomaly
Unknown
Mean motion
3.82526 °/min
Orbital period
94.11 mins
BSTAR
0.0000098698
Loading maneuver chart data...
Loading SW <> Apogee altitude chart data...
Loading historical data...
Loading historical data...
Loading historical data...
Loading historical data...
Loading historical data...
Loading historical data...
Loading historical data...

STARLINK-32440 Visibility forecast

Observer location: undefined°, undefined°

Span
Click to sort rows by Start time (UTC) header in descending order
Start Az.
Max El. time (UTC)
Max El. Az.
Max El.
End time (UTC)
End Az.
4 mins2025-07-03 07:39:36.316Z344.442° N2025-07-03 07:41:36.316Z19.837° NNE15.169°2025-07-03 07:43:36.316Z54.631° ENE
6 mins2025-07-03 09:17:36.316Z319.187° NNW2025-07-03 09:19:36.316Z356.828° N40.058°2025-07-03 09:23:36.316Z120.173° SE
5 mins2025-07-04 02:13:36.316Z212.577° SW2025-07-04 02:15:36.316Z127.505° SE42.219°2025-07-04 02:18:36.316Z56.454° ENE
|